Wind_Speed
15 12 11 15 17 17 16 15 15 15 14 11 9 9 10 9 7 6 6 7 6 7
18 17 13 15 12 16 17 14 19 17 16 13 12 12 10 9 7 6 5 5 7 8
23 21 19 16 14 16 18 15 15 13 17 14 15 13 12 11 9 8 10 8 7 6
27 25 22 20 16 16 20 19 18 14 15 16 15 15 15 12 10 9 9 11 10 11
29 26 25 26 24 17 19 17 18 15 16 18 16 16 17 16 13 11 13 11 13 13
24 25 26 25 25 23 19 20 18 17 15 17 20 17 17 17 16 15 14 14 13 11
12 24 26 26 23 24 23 20 19 19 19 17 17 17 19 18 18 17 17 16 17 18
8 3 17 23 21 19 21 23 22 20 20 20 19 20 20 21 21 19 20 19 19 18
3 5 6 4 10 13 19 20 20 19 20 19 20 20 18 21 22 22 23 24 23 22
2 8 11 8 7 7 7 7 15 19 18 18 19 17 18 19 22 24 24 23 26 26
10 3 7 8 11 11 11 9 7 7 9 13 12 14 16 19 22 24 25 25 25 24
13 15 8 12 9 10 10 11 13 12 9 6 8 10 11 16 18 20 23 24 25 24
16 13 9 8 7 9 12 9 10 9 8 8 8 8 9 12 14 15 20 21 21 22
12 11 11 8 9 12 16 15 15 8 10 13 14 15 13 11 10 12 13 15 17 17
Wind_Direction
203 197 199 199 199 222 221 214 208 213 215 230 229 221 227 237 249 249 276 288 311 319
214 212 210 206 218 218 221 229 218 212 217 224 226 216 222 232 233 244 288 284 302 312
219 217 219 222 226 231 215 220 216 213 209 211 219 225 227 233 238 244 254 270 286 293
220 223 228 235 229 231 230 226 212 215 216 210 211 219 230 239 238 248 267 260 278 277
219 223 228 230 227 226 219 220 228 241 225 227 225 227 231 237 243 251 262 265 268 270
230 233 234 236 236 231 227 231 229 225 229 239 228 233 242 242 247 253 256 258 263 272
234 230 234 240 240 239 239 236 238 238 241 242 238 243 244 247 255 257 258 254 258 266
15 279 242 238 238 242 238 239 241 243 245 246 248 247 250 256 259 258 261 262 263 264
28 339 23 239 238 240 246 239 235 241 244 250 250 255 260 260 264 263 263 264 267 269
7 25 20 14 2 330 331 273 246 240 240 245 247 257 262 265 266 267 272 277 274 272
67 44 353 12 16 4 355 355 334 295 256 253 249 259 261 264 265 268 271 273 274 275
65 57 60 49 12 18 356 351 336 329 322 302 296 298 279 272 272 274 272 275 277 278
49 54 45 38 27 5 8 1 342 341 346 346 323 319 313 312 296 288 280 275 282 284
36 29 13 21 19 10 6 14 17 21 28 72 58 45 36 24 14 358 328 310 299 291
Height
860 862 864 864 866 867 869 870 871 873 873 874 874 875 876 876 877 877 878 878 878 878
858 860 861 863 864 865 867 868 869 869 870 872 873 874 875 875 876 876 876 877 877 876
854 857 859 862 863 863 864 865 866 866 868 869 870 872 873 873 873 874 874 874 875 875
852 854 856 859 861 862 863 864 865 866 866 867 867 869 870 871 872 872 872 872 871 872
849 852 853 854 858 859 860 861 863 865 865 866 867 868 869 870 870 870 871 871 871 871
850 851 851 853 856 858 858 859 860 862 863 864 865 867 867 868 869 868 869 870 870 869
847 847 847 849 852 855 856 857 858 859 860 862 863 863 864 866 867 866 867 867 868 868
848 846 846 845 849 849 853 854 855 856 857 858 858 860 861 862 862 863 864 864 864 864
847 849 844 844 845 847 847 849 851 852 852 854 855 857 858 859 859 858 859 859 860 860
846 847 848 846 845 844 845 845 846 846 848 849 851 852 853 854 855 855 855 855 855 855
845 845 847 847 847 845 847 846 845 846 845 844 846 847 848 849 850 850 850 850 850 850
854 848 850 847 850 853 850 846 847 846 842 842 842 843 843 844 844 844 844 844 845 845
850 853 855 854 855 854 851 849 847 844 844 841 841 839 839 839 839 839 839 838 839 840
855 857 857 854 852 850 849 847 845 842 842 841 842 840 838 839 837 837 836 835 834 834